Location: Newark
(51.3318°N, 0.0053°E)
Time: 10:20:28
(UTC+00:00)

MOZHAYETS 4 - Pass Details

Date: 04 July 2022
Orbit: 660 x 679 km, 98.2° (Epoch: 09 August)

Event Time Altitude Azimuth Distance (km) Brightness Sun altitude
Rises 01:00:58 0° 129° (SE) 3,022 10.8 -14.7°
Reaches altitude 10° 01:03:29 10° 117° (ESE) 2,109 10.2 -14.6°
Maximum altitude 01:07:16 26° 61° (ENE) 1,329 9.7 -14.5°
Drops below altitude 10° 01:11:03 10° 6° (N) 2,111 11.7 -14.3°
Sets 01:13:34 0° 354° (N) 3,026 12.4 -14.2°
